User: anonymous   Login
Location: Fort Wayne
(41.1310°N, 85.1290°W)
Time: 04:49:58
(UTC-04:00)
Language:

SR - Orbit

View from above orbital plane
View from above orbital plane
View from above satellite
View from above satellite

Ground track
Ground track

The orbit data is extracted from the following two-line orbital elements,

1    46U 60007B   17144.56767227 +.00000072 +00000-0 +37136-4 0  9995
2    46 066.6895 191.9327 0217967 246.6899 111.1138 14.49032360976831
Epoch (UTC): 24 May 2017 13:37:26
Eccentricity: 0.0217967
inclination: 66.6895°
perigee height: 574 km
apogee height: 884 km
right ascension of ascending node: 191.9327°
argument of perigee: 246.6899°
revolutions per day: 14.49032360
mean anomaly at epoch: 111.1138°
orbit number at epoch: 97683

The dashed part of the orbit path shows where the satellite is in the earth's shadow,  

DLR